Theta_e
300 300 300 300 301 300 301 302 303 302 301 301 300 299 299 295 293 292 291 291 294 299 301 300 300 304 304 305 306 304 303 307 307 305 305 306 306 308 308 306 306 306 305 303 304 303 304 306 307 310 311 312 314 313 312 312 311 311 313 313 314 314 314 315 315 321 326 332 330 325 323 323 322 320
302 303 301 300 301 302 301 302 302 302 301 300 300 300 300 297 297 294 293 293 293 297 297 299 300 302 303 305 304 303 302 308 306 304 304 304 306 307 306 306 305 305 304 302 303 303 303 304 305 307 307 308 309 309 309 309 309 309 310 310 311 312 315 315 316 319 323 324 324 324 322 322 321 321
302 301 301 300 301 300 301 302 302 302 302 300 299 299 300 300 297 295 294 293 295 299 298 298 299 301 302 303 301 301 302 305 305 302 302 304 307 307 305 305 305 305 304 303 303 303 303 304 304 304 306 307 307 307 307 308 308 309 309 309 310 313 316 317 316 321 323 323 322 322 322 322 321 321
301 300 300 300 299 299 299 300 300 300 301 301 300 300 300 300 298 296 295 294 297 297 299 299 300 301 301 300 299 299 300 301 305 301 301 303 306 303 303 305 305 305 303 303 302 303 302 302 302 302 302 303 305 305 305 307 307 306 306 306 308 311 313 315 316 320 323 323 322 321 319 320 320 319
300 300 299 299 300 299 298 298 300 301 299 299 300 300 298 298 298 298 296 294 295 296 297 298 299 300 299 298 297 297 297 297 299 302 300 301 301 301 301 302 303 303 303 302 302 302 302 301 301 300 300 301 302 304 304 305 305 303 302 302 303 305 309 312 313 316 320 321 322 320 319 319 318 318
302 299 300 300 301 299 299 298 300 299 298 298 298 298 298 297 298 297 296 295 294 293 295 296 297 296 297 295 296 296 295 296 298 298 298 299 300 300 299 299 301 303 302 301 301 302 301 301 300 299 300 300 300 302 302 301 301 302 301 301 301 304 306 307 308 309 311 314 316 317 318 317 317 318
300 299 300 299 300 300 298 298 298 299 298 299 298 297 297 297 296 296 296 294 292 292 292 294 294 293 294 293 294 295 296 296 296 296 296 297 299 299 298 298 300 301 301 301 301 301 300 300 299 299 299 300 299 300 301 301 301 301 302 301 301 300 300 299 301 302 303 308 311 313 314 315 318 322
301 300 298 299 300 299 299 298 298 298 298 298 297 296 296 296 295 295 294 294 292 292 290 290 293 293 291 292 293 295 295 295 295 296 296 296 296 297 298 298 298 300 302 301 300 301 300 299 299 298 298 299 299 299 299 300 300 301 302 302 301 301 300 299 299 300 302 306 308 309 311 313 318 322
302 301 300 300 300 299 299 298 298 298 297 297 295 295 295 295 295 295 294 292 291 289 288 289 291 291 291 292 292 294 293 294 294 294 295 295 295 296 296 298 299 301 301 300 300 299 298 298 298 298 298 299 299 298 299 299 301 301 302 301 301 301 300 300 299 300 300 300 301 306 308 309 314 319
302 302 301 300 301 300 299 299 298 298 297 296 295 294 294 294 293 292 292 291 290 289 288 289 289 288 290 290 291 292 293 292 292 293 294 294 294 295 295 296 298 299 300 298 298 299 298 298 298 299 298 298 298 298 299 299 301 301 301 300 299 299 300 300 300 299 299 299 298 300 304 307 310 314
303 302 302 301 301 301 300 299 299 298 296 296 294 295 293 292 291 291 290 290 289 289 288 288 288 289 290 290 290 291 292 292 292 291 292 292 294 294 294 295 296 297 298 297 297 296 297 298 298 298 297 298 299 299 299 300 301 300 300 299 298 298 299 300 301 300 299 299 299 298 298 302 306 310
303 302 302 302 302 302 301 300 299 298 295 293 293 293 292 291 290 289 290 289 289 289 288 288 287 287 287 288 289 291 291 290 291 292 291 290 291 292 294 293 294 296 296 295 295 297 297 296 297 297 297 298 298 299 299 300 300 301 299 298 298 298 298 299 300 300 300 299 299 298 299 298 300 306
302 302 302 302 302 304 306 303 302 300 298 294 292 292 291 290 290 289 290 290 288 288 288 288 288 287 287 287 288 288 288 288 289 290 291 290 291 292 292 293 293 295 293 294 294 294 295 294 295 295 295 296 298 297 299 299 300 299 298 297 298 298 298 299 300 301 300 300 299 299 298 298 298 297
304 303 303 304 307 306 306 302 298 296 296 298 295 293 293 293 289 289 288 288 288 289 288 287 287 288 287 287 287 288 288 289 289 289 290 289 290 290 291 291 291 294 293 292 292 293 295 294 294 293 294 296 296 296 296 296 297 298 297 298 298 298 297 298 300 300 300 300 299 299 298 298 298 296
305 304 302 300 305 305 304 300 296 294 294 294 294 295 295 295 292 289 288 287 287 290 289 287 287 287 286 287 287 287 289 289 289 288 289 289 289 288 288 287 291 292 292 291 290 291 293 293 292 293 293 294 295 295 296 297 297 297 297 297 297 297 297 298 299 299 299 299 298 298 298 298 298 297
305 303 301 300 303 301 299 297 295 295 294 293 293 292 293 293 294 294 292 291 288 287 287 287 287 286 286 286 286 287 288 289 289 288 288 287 287 287 286 286 287 291 293 290 289 289 291 291 292 292 293 294 294 295 296 296 296 297 297 297 297 297 297 298 298 298 297 297 297 296 297 296 296 296
303 301 301 300 300 301 303 300 295 295 294 293 292 293 293 293 292 290 290 291 291 288 287 287 286 286 286 286 287 290 289 288 288 288 287 287 286 287 286 287 288 290 291 289 288 288 289 290 291 290 292 293 294 295 295 296 296 296 296 296 296 296 297 297 297 296 295 295 296 296 296 295 295 295
300 300 300 300 299 299 300 297 296 296 295 295 294 293 292 293 293 292 292 290 290 292 290 287 287 287 289 288 288 290 290 288 288 287 286 287 286 286 287 288 288 290 291 288 287 287 288 289 290 289 291 293 293 294 295 295 295 295 295 296 296 296 296 296 295 295 295 294 295 295 295 294 294 293
299 299 301 299 298 299 299 299 297 296 296 296 295 294 293 292 291 291 290 290 290 290 288 287 287 287 288 288 288 288 288 288 288 288 287 287 287 288 288 287 288 288 288 288 286 285 288 288 288 289 290 292 291 292 294 295 295 294 295 295 296 296 296 295 295 295 295 295 295 294 294 293 293 293
297 298 299 300 300 300 299 294 294 296 297 295 293 290 288 288 288 289 292 292 292 291 288 288 288 288 288 291 289 289 289 288 287 289 288 286 286 285 284 284 285 286 285 287 286 286 286 288 288 288 290 290 290 291 291 293 295 294 294 294 295 295 295 295 295 295 295 295 295 295 294 294 293 293
296 296 296 297 295 293 293 292 291 292 293 292 290 288 286 286 286 286 288 291 290 290 290 290 290 290 290 290 290 290 290 290 288 286 284 284 283 282 282 284 283 284 285 287 288 286 285 287 287 288 289 290 290 291 292 291 294 294 294 294 294 295 295 295 295 295 295 295 295 295 294 294 293 294
292 297 301 296 292 292 291 290 290 291 293 291 290 289 288 287 286 286 286 288 288 290 290 290 289 289 289 290 290 290 290 290 291 285 284 285 283 283 283 282 283 284 285 287 289 285 285 287 287 287 288 286 287 289 290 288 291 292 292 293 294 294 294 294 295 295 295 295 295 295 294 294 294 296
289 290 294 295 293 292 291 289 290 290 291 290 289 289 288 288 287 287 286 285 285 285 285 285 287 287 289 289 287 289 290 290 291 288 287 285 283 283 283 284 284 283 282 285 288 286 285 285 286 286 288 286 287 286 289 290 291 290 290 291 292 294 294 294 294 294 295 294 294 294 294 294 294 295
287 288 289 290 289 289 289 289 289 289 290 290 290 289 288 287 287 287 286 289 286 283 284 283 283 285 285 285 285 285 286 288 290 289 287 286 286 284 284 284 284 282 282 284 288 287 287 287 286 287 289 286 283 286 290 292 291 289 287 290 291 293 294 294 294 294 294 294 293 293 293 293 294 295
287 287 287 288 290 288 289 289 288 289 289 289 289 287 287 288 289 287 284 285 290 284 284 284 284 285 284 284 284 284 284 286 287 288 288 288 287 286 285 284 284 284 286 288 291 288 286 287 286 287 286 287 288 288 288 285 286 286 290 291 290 292 292 294 294 294 293 293 293 293 292 293 293 294
287 286 286 287 288 288 288 288 288 288 289 290 290 286 288 287 287 286 287 284 284 283 283 282 283 283 282 282 284 285 286 287 288 287 287 287 287 287 287 286 285 284 285 288 290 288 287 286 287 287 287 287 287 287 287 286 286 289 290 290 291 292 292 292 292 293 293 292 292 292 291 292 292 293
287 288 288 289 289 288 288 288 288 288 288 289 287 288 287 287 287 288 286 285 283 282 282 284 283 282 283 283 283 284 285 285 286 286 286 287 287 288 289 289 288 287 288 288 291 290 289 287 288 287 287 288 287 287 287 287 286 285 286 289 291 290 291 288 290 292 292 292 292 292 292 291 291 291
288 288 289 290 288 288 288 288 288 287 288 286 288 288 288 288 288 286 284 283 283 283 282 282 282 282 283 283 283 284 285 285 285 286 287 287 287 287 288 288 289 290 289 289 289 289 289 288 289 289 289 288 287 286 286 289 289 288 288 287 289 290 289 288 289 291 291 291 290 290 290 291 291 290
288 289 289 288 288 288 288 288 288 288 288 287 287 287 288 289 283 284 282 283 283 281 282 282 282 282 283 284 284 285 285 285 286 285 286 286 287 287 287 288 288 289 290 291 290 289 289 289 288 289 290 289 288 288 288 287 289 289 289 288 288 289 290 290 291 291 291 289 290 290 290 290 290 289
288 288 288 288 288 288 288 288 287 285 285 287 287 287 287 283 282 282 282 281 283 281 281 282 282 283 283 283 284 284 284 283 284 284 285 285 285 285 286 286 286 287 288 289 289 289 289 289 289 289 289 289 290 289 289 289 289 290 290 290 290 289 288 290 291 290 289 290 290 288 287 285 287 287
288 288 288 287 287 287 287 287 286 286 286 284 284 282 282 282 282 282 282 282 282 283 281 282 282 283 283 284 283 283 283 283 284 284 285 284 285 285 285 285 285 286 287 287 288 289 289 289 289 289 287 288 289 290 290 291 289 290 291 291 290 288 288 289 290 290 290 290 288 285 285 285 285 288
288 286 287 286 285 285 284 283 282 282 282 283 283 282 281 281 282 285 287 287 282 282 282 282 283 284 285 284 284 285 285 285 285 285 285 285 285 286 286 285 284 285 286 287 287 288 288 289 289 289 289 289 288 289 291 290 289 290 290 291 291 291 291 290 290 290 290 288 286 287 286 285 285 285
285 285 284 283 283 282 281 280 280 280 280 279 280 281 282 282 282 282 281 282 282 282 282 283 284 284 285 284 285 285 285 285 286 286 285 286 286 286 286 284 285 285 284 285 287 287 287 287 288 289 289 290 290 290 289 287 288 290 289 290 290 290 290 290 290 290 288 287 288 288 287 285 286 287
285 285 284 283 282 281 279 278 277 277 276 278 279 279 283 281 281 281 281 281 281 282 282 284 284 284 284 284 284 285 284 285 286 286 286 286 286 285 285 284 284 285 285 285 286 287 287 288 288 288 289 289 290 290 290 288 288 289 290 290 289 289 289 290 290 291 290 289 289 287 286 284 285 286
283 284 282 279 278 277 278 277 277 277 277 278 279 280 280 281 281 281 281 281 281 281 283 284 285 285 284 284 284 284 284 285 285 285 286 286 285 285 285 284 284 285 285 285 285 286 287 286 287 286 287 287 287 289 293 292 289 289 289 289 289 289 289 290 290 290 290 289 288 287 286 285 285 287
282 282 280 277 276 276 277 277 277 277 277 278 280 280 280 281 281 281 281 282 282 282 283 284 284 285 284 285 285 285 285 285 284 285 285 285 285 285 285 284 284 285 285 285 285 286 286 286 286 284 283 283 283 283 285 292 292 290 288 287 288 289 289 290 289 289 289 288 288 288 287 286 287 287
281 279 278 276 276 276 276 277 277 278 279 280 280 280 279 280 282 282 283 282 282 282 283 284 285 285 285 285 285 285 285 284 284 284 284 285 285 284 284 284 284 285 284 285 286 286 286 285 285 285 283 282 282 281 283 287 290 292 290 288 287 288 288 288 287 287 288 289 288 288 287 287 286 287
278 277 277 278 279 279 278 278 277 278 279 279 280 280 281 281 282 282 283 282 283 283 284 284 285 285 285 285 284 284 284 285 284 284 284 284 284 284 284 284 284 284 284 285 285 286 286 285 285 285 284 282 281 282 282 285 286 287 291 291 288 288 287 287 287 287 287 288 287 287 286 286 286 286
280 278 277 277 279 279 278 279 279 279 280 280 280 281 281 282 282 283 283 283 283 284 284 285 285 285 285 285 285 284 284 284 284 284 284 284 284 284 284 284 284 284 284 284 285 285 285 285 285 285 285 284 283 283 284 284 285 286 288 290 290 288 287 287 287 287 287 285 285 285 285 286 286 287
280 280 279 279 279 279 281 281 279 280 281 281 281 281 281 282 282 283 283 283 284 284 284 284 285 285 285 285 285 285 284 284 284 284 284 284 284 284 284 284 284 284 284 283 284 284 285 285 285 285 286 286 286 287 287 286 287 287 287 288 290 290 289 287 287 287 286 286 286 284 283 285 284 285
278 280 279 278 279 280 281 280 280 280 280 280 281 282 282 281 282 282 283 284 284 284 284 284 285 285 285 285 285 284 284 284 284 284 284 284 284 284 284 284 284 284 283 283 283 284 284 286 287 287 287 287 287 287 285 284 283 285 286 286 288 288 288 289 289 287 286 286 286 285 284 283 283 284
279 278 278 278 280 280 282 281 281 280 281 281 281 281 281 282 282 284 284 284 284 284 284 284 285 285 285 285 285 285 284 284 284 284 284 284 284 284 284 284 283 284 283 283 283 284 286 287 286 286 286 286 285 283 283 283 283 284 285 285 285 287 288 289 290 290 288 286 285 284 283 283 284 282
278 278 278 278 278 280 281 280 279 279 280 280 281 281 280 281 281 281 282 283 283 284 284 284 285 285 285 285 285 285 284 284 284 284 284 284 284 284 284 284 284 284 284 284 285 285 286 286 286 285 285 285 284 284 283 284 284 285 285 284 285 285 286 288 289 288 288 288 288 287 285 284 283 280
278 278 277 277 277 278 278 279 279 279 279 279 280 280 279 280 280 281 282 282 283 283 284 284 284 284 284 285 285 285 285 285 285 284 284 284 285 284 284 284 285 285 285 285 285 285 285 285 285 285 284 284 285 284 284 284 284 285 285 284 285 285 284 285 286 286 286 287 287 288 288 287 287 286
277 277 276 276 275 274 275 276 277 278 279 279 279 279 280 280 281 281 282 282 283 283 284 284 284 284 284 285 284 284 285 285 285 285 285 285 285 285 285 285 285 285 285 285 284 284 285 285 285 285 284 285 285 285 285 285 285 285 284 284 283 284 284 285 285 284 284 284 285 286 286 286 286 286
Wind_Speed
4 4 4 4 4 3 2 4 5 4 3 2 2 3 5 4 5 2 4 2 1 3 3 4 4 6 6 7 6 7 7 11 11 8 8 8 7 13 15 16 14 14 14 13 13 13 13 12 11 10 9 10 10 10 11 11 10 10 10 11 11 12 13 15 17 18 21 22 19 15 14 15 16 18
4 4 4 3 4 2 3 3 2 3 3 3 3 3 2 4 5 1 2 2 2 2 3 2 3 5 7 6 7 6 7 12 11 8 8 8 9 13 16 17 18 18 17 16 16 15 15 15 15 14 13 12 12 11 11 11 11 11 10 10 10 9 11 14 15 18 19 18 18 19 18 17 17 19
4 4 4 3 3 3 4 4 4 3 3 3 3 4 4 3 3 3 2 1 2 1 2 2 2 3 5 5 6 7 6 9 10 8 8 8 12 14 13 17 18 19 18 17 17 16 15 15 16 15 15 14 13 13 13 12 12 11 10 9 9 9 11 11 13 17 18 17 17 19 21 19 17 17
4 4 4 2 3 1 3 4 4 3 3 3 5 4 5 4 2 3 2 1 2 1 0 3 3 4 5 4 8 7 7 8 10 6 7 8 10 9 8 12 16 17 17 17 16 16 15 15 15 15 15 15 15 15 14 13 11 10 10 9 8 8 10 11 11 13 15 15 16 17 16 15 13 14
4 4 4 2 1 1 4 3 3 4 4 5 6 5 5 6 3 3 3 2 1 2 1 1 3 4 4 5 6 7 7 8 7 7 6 6 7 7 7 7 12 14 14 15 15 15 15 15 15 15 15 15 15 15 15 14 14 12 11 10 9 8 8 9 9 10 13 13 13 13 14 15 14 13
2 4 4 2 1 0 4 3 4 3 4 5 6 5 5 5 5 2 4 2 1 1 3 5 3 6 4 4 5 7 7 7 5 7 7 5 6 7 7 7 7 12 12 13 13 13 14 14 14 15 14 14 14 15 15 15 15 14 13 12 10 10 10 9 7 6 8 10 11 12 11 11 12 14
3 3 4 4 3 3 4 3 3 3 4 4 6 4 4 5 3 3 3 4 3 2 2 1 3 5 5 4 6 6 5 4 4 5 7 6 5 5 6 6 5 10 10 11 11 12 12 13 13 13 13 13 13 14 14 14 14 13 12 11 9 9 9 8 8 7 6 8 11 10 10 11 10 13
4 4 4 4 4 4 4 4 4 3 4 5 5 5 4 5 4 3 3 3 3 1 3 2 2 3 4 3 3 5 4 5 5 4 4 4 4 5 6 5 6 8 10 10 10 11 11 12 12 13 13 13 12 13 13 13 13 12 12 12 11 10 9 8 8 8 7 9 9 10 9 10 12 14
6 5 5 5 4 4 4 3 4 4 5 4 5 5 3 4 3 3 3 3 3 3 3 2 1 2 1 1 2 5 8 7 4 3 5 5 5 5 4 4 5 8 8 8 10 10 11 12 12 12 13 12 12 13 13 13 13 12 12 12 12 12 10 9 8 8 8 8 8 9 9 9 12 14
6 6 6 5 5 5 5 4 4 4 5 4 5 5 3 4 3 4 3 3 4 4 1 0 3 2 4 2 1 3 5 6 7 8 6 3 4 7 8 6 6 4 4 4 5 7 8 11 12 12 12 11 12 13 13 13 13 13 12 13 13 13 13 11 9 8 8 8 8 7 8 9 9 11
5 5 5 5 6 6 6 5 6 5 4 4 4 5 5 4 4 4 3 3 4 3 2 1 0 2 1 2 5 3 3 3 2 7 9 10 6 5 7 9 7 4 4 3 6 7 8 9 9 10 10 10 11 12 13 12 13 13 14 14 13 13 13 13 12 9 7 7 8 7 7 7 8 10
5 6 5 6 7 7 6 6 5 6 6 4 4 3 3 3 3 3 3 3 4 3 2 1 1 1 2 3 1 3 4 4 1 4 4 9 10 10 6 5 9 5 4 6 7 7 9 8 9 9 8 9 11 11 11 12 12 13 14 15 14 13 13 13 13 11 8 6 7 7 7 8 8 9
3 4 5 5 6 6 8 10 9 8 8 6 5 3 3 3 3 3 3 3 3 2 2 2 1 2 4 3 5 6 5 6 6 5 3 3 5 7 8 6 4 3 6 6 7 7 8 10 9 8 7 7 10 9 11 9 11 13 14 15 15 13 12 12 11 10 9 7 6 7 8 8 7 7
4 5 6 5 8 9 10 10 10 11 10 9 7 7 5 4 4 3 2 2 1 1 2 2 2 5 5 5 3 3 2 3 3 5 5 6 6 6 7 4 1 3 5 9 11 9 6 8 8 6 7 7 7 7 7 7 11 13 14 14 15 13 11 11 10 9 9 7 6 6 5 5 5 6
8 7 6 4 5 7 7 7 11 11 10 10 10 10 8 7 6 4 3 3 3 2 1 1 1 1 4 5 3 3 4 3 3 4 4 6 6 6 8 13 6 2 7 7 9 11 6 4 9 8 6 6 6 8 8 13 14 14 13 15 14 12 10 10 8 8 9 8 5 2 2 3 4 4
6 6 4 3 3 4 5 6 7 7 9 9 9 9 8 7 8 8 5 4 2 2 2 2 3 2 3 3 3 3 4 5 5 3 3 3 4 7 7 5 8 5 7 9 9 11 4 3 6 8 6 5 6 8 13 16 14 13 13 13 13 11 9 9 8 6 7 7 5 3 2 3 3 3
4 3 4 3 3 3 7 6 5 5 4 4 5 5 4 3 6 8 9 7 2 3 2 3 3 2 1 1 1 1 2 2 4 5 6 5 4 5 6 7 8 7 4 6 9 11 5 4 6 7 6 5 6 9 11 14 13 12 13 13 12 10 8 6 4 4 5 5 5 5 4 3 2 3
4 5 6 5 4 3 4 4 5 4 4 4 3 4 4 4 5 6 7 5 5 3 1 1 1 0 1 1 2 3 1 2 4 5 7 4 7 7 8 7 8 7 4 4 5 10 7 4 5 7 7 6 6 7 11 12 10 11 12 11 10 8 4 3 3 3 3 3 4 5 6 7 6 5
4 5 6 6 6 5 4 3 4 4 4 4 4 5 5 5 4 4 4 4 4 3 3 3 1 2 2 3 3 3 3 3 4 4 6 6 6 7 6 6 5 5 3 3 1 7 8 5 6 6 7 7 7 6 9 8 8 10 10 10 9 8 6 4 5 4 4 4 3 3 3 3 4 5
3 4 5 6 5 4 4 4 5 5 5 5 5 5 4 4 4 3 2 4 5 4 3 2 1 1 2 3 3 3 4 3 3 3 3 3 4 4 5 7 5 4 4 3 4 6 6 5 6 7 7 7 7 6 6 5 6 9 9 8 8 7 5 5 3 3 3 3 2 2 3 3 4 5
4 3 3 5 6 6 5 5 9 10 9 7 6 5 4 2 2 2 1 3 5 4 3 0 2 4 5 5 6 7 7 4 3 1 3 6 3 5 7 6 4 5 3 3 4 3 5 5 4 7 5 6 6 6 7 5 3 7 8 6 5 5 6 6 5 4 4 3 3 3 3 3 4 5
5 7 11 8 7 7 5 8 11 10 9 7 5 4 3 3 3 3 2 2 2 3 3 1 2 5 5 6 7 7 8 9 6 2 6 5 3 6 5 7 5 6 3 5 1 1 5 6 4 6 5 3 4 5 7 3 5 5 5 5 5 4 5 5 6 5 5 4 4 4 3 3 3 3
6 6 7 11 9 8 8 11 10 10 8 6 4 4 4 2 3 1 1 2 3 4 4 4 4 5 7 5 5 6 10 10 8 3 5 5 4 7 6 7 7 7 2 4 0 5 5 4 4 3 7 8 4 5 4 3 5 5 5 4 4 6 6 6 6 6 5 4 5 5 4 4 2 1
5 5 6 7 10 11 10 9 9 7 7 6 4 3 4 3 2 0 2 1 1 2 2 4 3 4 5 5 4 5 5 6 4 5 5 5 5 6 7 7 5 7 3 1 3 5 5 4 5 2 5 8 6 2 4 6 5 4 4 5 6 6 5 5 5 6 5 4 5 4 3 3 2 1
6 5 5 4 6 9 9 8 8 8 8 6 4 3 3 1 1 2 0 2 2 1 2 3 3 5 4 4 4 5 5 6 6 6 5 6 5 6 7 7 7 8 6 6 8 4 5 3 7 4 5 4 7 8 4 3 5 5 4 5 6 7 3 5 4 4 4 5 6 5 3 2 1 1
5 5 4 4 4 7 8 8 7 7 6 5 3 2 2 1 1 0 0 1 1 1 2 3 4 4 5 6 6 5 5 6 6 6 6 6 6 6 6 7 9 9 7 4 7 5 7 7 5 7 6 7 8 6 9 5 4 6 6 5 5 7 5 5 4 4 4 4 4 4 3 2 1 0
6 3 3 3 4 5 6 6 6 6 6 4 2 2 2 2 1 0 0 0 1 2 3 3 5 5 6 6 6 6 6 6 6 6 6 7 7 7 7 7 8 9 9 6 6 7 7 8 4 7 8 7 10 8 8 8 5 2 5 5 6 6 6 4 6 6 5 4 4 4 4 4 3 2
5 5 3 3 3 5 7 7 7 7 6 4 6 5 4 2 2 1 1 2 3 3 4 5 6 6 6 6 6 6 6 6 6 7 6 7 7 7 8 8 9 8 8 6 6 6 7 8 8 7 8 9 10 10 10 7 7 6 7 4 5 5 6 5 5 5 5 4 4 3 2 3 3 3
3 5 6 7 7 7 9 9 8 7 7 7 6 6 6 5 3 3 3 3 3 5 5 6 6 6 6 7 7 7 7 6 6 6 7 6 7 7 8 8 8 7 6 6 6 6 7 8 8 8 8 8 9 9 8 9 7 7 5 7 5 5 6 5 5 6 6 3 4 4 4 4 5 2
10 10 10 11 10 9 7 6 5 4 3 6 7 7 6 4 3 3 4 3 4 5 5 5 6 7 7 7 7 7 6 6 7 7 7 7 7 7 8 8 7 5 6 6 7 7 7 7 8 8 9 9 9 10 9 9 9 7 6 7 8 4 4 5 6 6 4 5 5 4 4 3 4 2
7 8 8 7 8 8 9 8 6 5 4 5 6 5 3 3 3 3 3 3 4 4 5 5 6 6 7 6 6 7 7 7 7 6 7 7 8 7 7 8 9 7 6 6 7 7 7 8 7 7 9 9 9 10 9 8 10 7 7 6 5 7 3 3 4 4 5 6 4 3 4 3 4 3
6 6 6 7 5 5 6 6 5 5 5 3 4 4 3 4 3 3 4 4 3 4 4 6 5 6 6 7 7 7 7 7 7 6 7 7 8 7 8 8 9 8 8 6 6 6 7 7 8 8 8 9 10 9 8 8 9 8 9 8 8 6 4 4 5 5 6 3 2 5 5 4 5 4
6 6 6 5 5 5 5 5 4 5 5 4 3 3 4 4 4 5 5 5 6 6 5 6 7 7 7 7 7 7 8 7 8 6 7 7 8 8 7 9 9 9 9 8 7 7 6 7 7 9 9 9 9 10 9 10 9 8 8 7 6 7 5 5 6 6 2 2 5 5 5 4 4 4
7 6 5 4 4 4 5 4 3 3 2 3 5 4 4 4 5 5 5 5 5 5 5 6 6 7 7 8 8 8 9 9 8 8 8 9 8 8 8 9 9 9 9 9 8 8 7 7 7 7 8 9 9 10 10 10 10 8 8 7 7 7 7 5 6 6 6 6 6 6 5 4 4 4
5 5 5 4 3 3 3 3 2 1 2 3 5 5 5 5 4 5 5 5 5 5 5 6 6 7 7 8 8 8 9 9 9 8 7 8 8 8 9 9 9 9 9 9 8 7 7 7 7 8 7 7 8 8 11 12 9 9 7 7 6 7 8 6 6 6 6 6 4 5 5 3 4 3
5 5 6 4 3 3 3 1 1 1 2 3 4 4 5 6 5 5 6 5 5 5 6 7 7 8 8 8 9 9 9 9 9 9 9 7 8 8 8 9 9 9 9 9 8 7 7 7 7 8 9 8 8 9 7 12 15 9 8 7 7 8 7 5 5 5 5 5 5 5 5 4 4 3
5 5 5 4 2 3 3 1 0 2 3 3 4 4 4 6 6 6 6 5 5 5 6 7 7 8 9 9 9 9 9 9 9 9 9 8 8 8 9 9 9 9 9 9 7 8 6 7 6 8 9 9 9 9 8 1 10 14 8 8 7 5 6 4 3 4 4 5 4 5 5 3 2 2
6 4 4 3 3 2 1 1 1 2 3 3 4 5 5 5 6 6 6 5 6 6 7 7 8 9 9 9 9 9 9 9 9 9 9 8 8 8 8 9 9 8 8 9 7 7 6 7 7 7 8 10 8 9 7 3 2 4 8 9 6 6 3 3 4 4 3 3 3 2 2 3 3 2
6 5 4 3 2 2 1 1 1 2 3 3 4 5 6 6 6 6 6 7 7 7 8 8 9 9 9 10 9 9 9 9 9 9 9 8 8 9 9 8 9 8 8 9 7 7 6 7 7 7 8 9 9 7 5 5 6 5 4 2 4 5 4 4 5 3 2 3 3 4 5 4 6 8
4 4 4 4 2 1 1 1 2 2 4 4 5 5 5 6 6 7 8 8 8 8 8 8 10 10 9 9 9 8 9 9 9 9 9 9 9 8 8 8 8 9 9 9 9 8 7 8 7 8 7 8 8 7 6 5 5 5 6 6 8 8 6 3 4 3 2 3 5 5 5 4 4 1
4 3 3 3 2 1 1 1 2 2 4 4 5 5 5 5 6 7 7 8 8 8 8 8 9 9 9 9 9 8 9 9 8 8 8 8 9 9 9 10 9 8 8 9 9 9 9 8 8 10 9 6 6 4 4 5 7 7 5 4 2 3 4 6 5 4 3 5 4 5 5 4 4 3
4 4 3 3 3 1 0 1 2 3 5 4 5 5 6 6 6 10 9 10 8 8 7 8 8 9 9 9 8 8 8 9 9 9 8 8 9 9 9 7 7 8 7 9 9 9 7 4 4 4 4 5 4 5 7 6 7 6 3 2 3 5 7 5 10 7 7 8 8 5 4 3 3 4
3 4 3 3 1 1 0 1 2 2 4 4 5 5 5 7 6 8 7 8 8 7 7 8 8 8 9 8 8 8 8 9 9 9 9 9 8 9 8 7 8 8 8 9 8 7 7 5 4 4 4 5 5 5 7 5 5 4 2 1 1 3 5 8 7 9 8 7 7 4 2 3 5 4
4 4 3 2 1 1 1 2 3 3 4 5 5 5 5 6 7 8 7 7 8 8 8 8 8 9 9 9 8 8 8 8 8 9 9 9 8 8 8 9 8 8 8 7 7 6 5 4 4 4 5 5 5 5 6 5 5 4 2 2 1 3 5 4 6 9 10 11 11 10 9 7 3 3
3 3 3 2 2 2 2 2 2 4 5 5 5 5 6 6 7 7 7 7 7 7 8 8 9 9 9 9 8 9 9 9 9 8 8 8 8 8 8 8 8 8 7 6 6 6 4 4 3 3 4 5 4 5 4 4 3 2 3 3 4 3 3 2 5 6 6 5 7 6 7 7 10 14
Wind_Direction
113 85 81 101 89 42 54 61 60 73 63 82 126 132 128 140 107 37 22 309 325 320 12 37 326 10 6 3 1 6 9 5 6 4 3 360 7 0 7 12 13 12 10 8 6 5 2 0 358 347 332 317 304 295 291 290 285 281 277 269 264 259 246 240 244 242 243 245 259 266 249 237 219 214
101 100 88 92 80 29 56 56 74 82 104 92 87 94 111 120 116 155 77 320 221 288 323 29 354 346 356 1 3 11 3 4 10 9 7 8 7 6 15 17 21 20 18 17 18 16 14 14 10 4 354 338 323 312 304 299 294 289 281 274 270 260 252 250 244 247 249 249 246 246 246 238 231 221
107 104 96 76 77 58 79 67 64 50 59 95 103 81 78 63 122 133 127 60 293 167 355 312 356 352 337 1 6 7 4 3 9 15 13 14 13 19 14 15 21 18 19 20 23 25 27 26 21 16 11 3 355 346 337 328 318 306 297 287 278 269 258 250 246 247 252 252 246 246 247 245 233 228
115 121 120 119 133 132 94 78 70 73 63 86 87 94 85 57 70 111 110 120 289 269 272 323 324 9 342 8 16 3 358 358 7 15 17 13 20 20 12 11 18 20 24 25 27 28 29 29 25 19 16 13 11 8 3 354 342 326 312 299 288 281 279 277 270 257 252 249 249 250 250 252 259 258
123 124 130 141 124 132 92 92 76 68 82 81 77 87 89 72 48 81 105 95 301 310 319 347 347 341 1 17 15 8 357 356 355 9 16 12 22 18 11 5 12 20 26 26 23 23 22 22 22 18 14 12 11 11 10 9 3 353 339 327 316 306 297 293 292 292 283 276 269 256 253 250 243 237
125 134 138 171 191 103 103 87 74 88 77 81 76 58 81 75 54 33 91 97 138 305 315 359 350 2 5 17 11 11 357 351 351 9 7 13 20 13 4 4 2 10 24 24 21 18 16 15 15 13 9 7 8 7 7 8 8 5 358 347 334 324 320 312 305 298 300 300 295 290 278 259 246 243
153 135 146 171 170 145 98 93 112 107 95 88 91 84 81 86 70 47 70 77 40 44 322 315 5 6 343 17 358 359 351 341 346 8 9 2 9 13 6 358 355 354 14 16 16 11 11 10 6 6 3 1 2 2 1 2 3 4 4 357 346 333 319 310 304 298 291 291 291 291 286 282 270 259
169 172 161 185 173 161 130 138 119 106 109 105 108 99 88 99 93 80 75 78 104 97 26 315 49 351 358 335 344 351 348 2 357 8 346 353 14 5 4 358 353 345 356 5 7 3 3 1 359 359 356 353 355 356 354 353 353 357 1 360 352 337 321 308 300 294 286 284 282 281 284 281 270 264
178 177 185 188 177 164 146 144 132 136 117 130 119 119 122 116 123 86 87 87 84 81 34 323 288 345 303 297 321 1 358 350 357 358 2 349 354 353 351 345 344 338 355 354 358 357 357 356 353 353 349 347 349 349 347 345 344 346 352 356 353 344 331 315 295 284 278 275 274 279 280 282 283 273
185 184 194 183 177 173 171 184 169 149 138 135 126 127 138 136 124 117 106 103 89 87 73 23 345 339 359 341 326 3 2 349 344 349 351 344 356 356 350 354 344 341 350 346 353 351 352 350 346 346 343 343 345 344 343 342 339 339 343 347 349 348 344 332 311 285 273 269 265 264 267 269 268 272
194 195 192 186 183 187 187 169 173 159 146 138 138 148 149 151 124 117 128 116 98 97 68 3 57 311 298 9 342 344 350 320 352 357 343 346 354 358 354 336 339 336 334 333 338 338 336 333 339 336 338 339 341 342 341 339 337 336 338 339 340 343 345 340 329 311 282 263 256 252 252 251 256 260
208 204 199 196 196 192 187 177 174 156 154 140 133 169 138 138 106 113 120 88 95 89 86 91 301 295 288 332 285 300 338 1 20 41 6 334 335 338 342 328 323 326 347 338 341 339 337 337 335 336 334 336 338 339 339 336 333 333 333 331 330 335 343 342 335 329 314 283 260 248 246 247 244 247
236 230 216 212 205 198 189 185 171 171 155 146 148 195 154 137 111 103 75 97 87 65 63 356 274 338 347 331 349 349 9 9 327 323 3 308 311 318 323 323 293 313 341 331 330 338 343 332 334 333 334 335 339 335 337 329 329 329 327 325 324 328 338 337 331 324 315 293 263 248 245 250 254 255
219 229 233 231 210 198 188 181 168 159 162 164 161 169 166 142 129 126 118 113 125 100 14 314 349 350 332 326 336 325 300 302 314 333 338 329 318 319 307 284 254 357 11 340 330 329 341 323 316 328 324 324 333 328 329 324 322 321 323 325 321 322 333 328 323 314 307 295 272 259 263 264 258 252
223 222 215 219 207 198 180 164 160 160 161 160 158 162 166 163 153 149 139 182 172 169 214 221 34 295 297 302 309 307 304 333 335 321 325 316 329 347 346 329 324 76 7 338 322 312 329 317 314 318 313 313 326 321 316 315 317 320 327 324 321 327 328 317 312 306 300 303 303 290 279 288 299 302
221 217 200 190 178 180 166 151 152 154 160 158 159 162 166 171 169 159 156 164 171 193 204 263 251 213 257 272 331 325 359 329 329 316 323 316 330 323 318 292 297 314 6 325 312 300 314 292 294 302 303 308 314 309 307 310 317 330 329 327 328 332 324 315 311 314 317 321 337 352 19 9 355 338
213 180 170 163 159 150 148 138 144 154 157 122 106 117 118 69 46 38 40 47 104 163 160 203 255 210 217 328 284 5 313 313 320 324 326 319 301 285 285 285 295 309 342 310 302 304 320 318 300 300 298 298 306 307 307 313 328 336 334 331 330 331 332 341 359 29 34 15 6 10 20 23 4 346
173 164 162 156 147 141 145 145 158 162 137 129 102 73 55 60 50 59 57 65 75 88 123 144 224 216 144 227 233 269 233 316 304 307 297 299 301 296 286 293 292 295 294 267 287 295 313 318 303 294 297 302 301 300 302 322 341 340 329 329 334 337 356 23 40 51 52 32 11 6 358 354 349 338
149 154 159 162 155 147 155 157 163 143 142 127 102 83 66 62 74 71 66 72 86 93 102 130 173 226 214 211 241 257 250 241 251 258 268 282 281 282 295 289 262 285 269 247 279 287 309 315 310 294 296 300 299 291 301 330 342 332 330 337 342 347 8 23 18 18 14 9 356 329 305 284 284 286
111 139 144 140 128 119 98 53 104 106 106 97 93 89 82 79 74 74 88 89 96 111 132 150 175 222 231 251 255 265 267 265 262 275 292 300 279 299 309 303 311 294 280 250 261 278 297 304 293 292 288 296 291 290 288 305 331 328 329 338 346 351 350 351 354 351 345 332 337 326 308 288 274 264
43 37 82 94 96 85 80 91 95 101 104 96 99 95 84 74 84 39 340 88 88 83 100 103 263 273 276 277 273 270 270 268 266 234 332 300 296 330 309 298 304 285 299 265 247 262 291 288 290 290 279 275 280 281 281 282 303 322 319 326 344 343 339 334 340 346 358 1 6 21 1 343 322 296
43 42 68 86 93 93 88 90 91 95 94 96 103 106 95 54 30 0 353 12 13 25 351 356 325 299 303 317 321 318 320 318 321 326 290 275 326 292 278 290 296 296 292 267 231 252 261 289 281 288 279 294 274 267 264 279 296 304 310 311 303 306 305 309 312 322 330 333 343 351 353 349 347 320
54 54 57 81 92 95 98 91 92 94 100 108 117 121 105 83 50 324 344 24 359 349 354 340 354 337 337 338 332 318 314 305 301 270 254 272 269 276 279 281 301 312 274 261 314 313 295 318 282 308 322 307 268 270 284 307 311 310 301 303 292 265 261 274 284 290 291 320 322 323 335 349 11 318
54 64 72 75 91 96 94 91 91 94 103 111 117 105 99 109 59 263 24 353 15 318 329 304 310 294 295 303 305 307 305 305 297 291 279 266 254 263 275 275 264 263 262 259 310 287 282 262 286 326 298 301 302 306 300 296 278 274 281 306 306 277 244 257 260 253 279 296 290 294 310 334 27 17
108 92 86 86 101 103 103 101 94 89 83 91 106 103 115 141 133 127 20 310 342 305 292 292 294 287 291 290 290 288 291 286 288 287 283 274 256 254 269 275 272 266 257 264 271 272 277 296 294 295 273 249 278 296 262 241 277 262 258 272 281 291 268 255 251 271 272 283 278 275 289 319 337 139
106 122 122 110 106 108 110 106 101 94 89 78 80 83 91 98 85 231 219 237 287 263 265 271 284 292 297 298 295 289 283 280 279 275 274 273 269 256 240 251 269 279 275 251 256 267 283 282 266 283 278 282 279 265 292 274 254 258 258 267 253 260 263 267 275 275 268 264 275 265 263 292 308 26
124 114 104 98 88 82 86 86 89 85 78 69 51 41 8 357 342 212 179 199 326 322 316 314 309 302 298 300 294 290 284 274 270 271 268 266 266 265 262 255 244 254 268 266 257 261 261 274 263 268 279 276 283 285 272 288 286 289 294 260 249 249 251 245 258 260 264 262 266 277 275 274 270 257
124 115 109 113 103 58 51 55 58 56 52 48 38 30 25 42 59 46 14 355 347 331 326 325 313 304 292 286 287 280 275 278 277 278 276 274 269 269 270 267 269 266 268 261 254 245 253 266 272 259 265 274 277 280 286 271 267 262 263 265 258 252 251 225 243 259 267 264 281 260 266 264 228 230
110 111 101 86 78 74 75 74 74 68 63 63 63 56 46 40 30 21 5 344 345 336 317 303 294 290 285 278 278 281 283 286 289 285 282 278 276 273 271 271 268 270 267 266 260 254 255 260 269 273 269 266 269 271 270 279 276 270 249 265 275 251 241 228 227 241 252 251 255 272 271 286 305 337
89 84 82 83 82 79 80 78 70 68 53 52 48 39 35 29 19 2 356 335 333 311 301 297 296 290 290 291 287 288 292 293 287 288 291 295 293 290 290 291 278 265 258 256 255 256 256 259 262 267 270 267 265 271 270 276 271 267 252 246 256 279 264 228 232 234 249 261 256 252 257 224 236 220
89 84 84 93 95 94 84 82 78 65 37 36 22 14 10 3 345 329 317 302 292 294 290 286 285 287 287 287 297 298 296 292 288 281 284 286 285 288 284 283 284 278 258 250 253 253 254 256 256 256 265 269 266 264 270 265 272 272 264 248 249 254 244 228 240 236 229 242 252 272 276 269 265 239
102 100 91 76 59 61 53 46 38 32 34 38 15 355 345 337 326 315 300 296 290 279 275 279 281 291 300 303 300 297 292 286 286 280 277 282 286 285 289 284 283 282 279 260 255 252 255 256 260 258 254 260 266 269 265 264 270 275 274 264 252 250 223 213 228 238 235 218 262 254 248 233 240 251
87 82 74 68 58 50 59 44 36 19 16 4 354 347 336 331 329 330 341 329 313 307 312 311 312 309 308 303 301 298 295 291 291 285 280 276 281 284 276 276 281 283 284 282 274 267 254 258 250 254 260 261 260 263 266 269 261 257 259 253 248 252 247 226 219 234 187 169 239 254 265 252 228 231
94 86 90 78 83 71 65 55 37 11 0 356 349 337 328 331 327 322 318 311 303 305 301 298 304 305 306 302 304 301 296 294 289 286 284 286 284 283 280 279 277 275 275 276 277 276 277 271 265 257 253 255 254 250 248 253 257 251 245 242 242 253 247 230 227 224 198 206 218 241 249 265 251 238
92 106 99 100 88 100 92 74 49 7 9 351 344 337 329 312 315 314 311 301 298 299 302 305 303 302 302 300 299 296 295 293 292 289 282 278 276 272 274 276 278 277 276 276 274 273 274 275 276 276 271 265 265 257 233 234 255 251 259 251 244 246 253 230 229 224 212 226 199 229 241 230 242 240
102 114 118 110 102 96 80 40 326 358 358 345 337 324 332 325 314 314 313 307 310 307 308 309 309 306 304 299 297 293 291 290 289 288 287 281 277 273 269 268 271 273 271 270 271 269 264 265 262 270 280 279 273 276 276 220 221 236 239 250 236 239 246 237 224 220 211 219 201 209 226 225 221 199
120 121 117 125 135 119 113 158 38 341 348 334 324 320 312 314 312 310 300 304 304 299 302 306 305 304 301 298 294 290 287 288 287 287 283 281 276 274 275 273 268 270 272 267 264 265 255 257 251 252 263 272 271 273 273 314 230 226 217 233 244 236 240 233 211 228 222 207 207 201 216 196 200 159
134 131 122 122 134 147 149 134 31 358 334 325 318 312 305 297 300 300 300 310 310 312 311 309 303 301 297 293 292 289 288 283 282 283 280 280 280 278 273 276 277 273 272 272 264 259 248 249 248 244 250 261 269 270 285 264 289 277 231 224 240 250 208 206 221 225 227 193 201 181 132 138 140 123
132 137 141 150 166 148 93 344 70 340 321 320 320 316 314 312 309 312 321 319 317 314 311 306 301 297 294 291 287 286 288 289 287 285 284 282 278 279 280 277 278 277 275 276 269 258 247 244 242 242 240 253 259 268 276 287 273 272 316 274 234 270 245 209 232 222 175 125 89 72 52 80 92 98
144 137 152 153 174 172 164 319 1 325 320 309 310 308 312 312 318 323 321 317 312 306 301 296 294 294 291 288 288 288 284 282 282 283 283 282 281 275 275 276 275 280 280 276 276 267 253 247 239 237 236 238 247 253 260 266 276 285 275 266 228 223 243 206 223 185 158 148 137 126 127 131 112 2
139 139 184 182 171 188 112 340 298 314 316 311 313 308 305 309 317 313 307 303 300 300 298 296 294 293 292 293 292 291 289 288 285 284 283 282 280 278 275 275 275 269 270 273 271 270 259 250 240 235 237 247 255 284 281 258 263 263 267 275 299 310 282 230 218 179 157 150 144 131 134 129 124 118
155 168 186 180 175 205 190 302 314 318 309 313 307 307 315 318 309 307 304 301 297 295 294 295 295 296 295 294 295 293 290 291 293 290 287 287 286 284 276 270 266 270 261 265 270 268 269 258 244 234 233 238 240 233 244 249 260 275 275 315 328 337 342 297 226 200 150 151 145 135 107 79 76 109
158 165 176 207 209 230 213 297 297 298 301 302 307 314 319 313 308 308 303 302 301 301 298 300 299 299 297 297 297 295 293 290 290 290 290 287 284 285 286 279 271 270 268 269 270 272 271 262 236 225 224 216 225 219 242 248 250 257 257 275 339 356 17 29 84 107 106 93 70 81 111 146 148 158
172 165 191 197 214 243 275 287 298 301 295 304 308 314 309 307 307 304 302 300 302 301 303 302 302 301 300 300 299 296 292 291 292 292 291 290 286 284 282 282 279 275 272 269 276 273 266 252 229 216 221 225 219 219 235 242 254 241 209 113 64 76 76 66 68 65 63 54 61 71 71 84 112 129
176 173 180 225 241 265 283 283 290 297 312 318 320 314 312 311 304 303 301 299 298 302 303 302 303 302 302 302 302 299 297 294 293 290 289 288 287 283 281 279 280 279 275 272 274 279 269 256 235 206 220 234 221 223 234 231 241 169 128 124 114 97 87 87 92 87 75 72 17 36 89 80 93 100